Time,TemperatureF,DewpointF,PressureIn,WindDirection,WindDirectionDegrees,WindSpeedMPH,WindSpeedGustMPH,Humidity,HourlyPrecipIn,Conditions,Clouds,dailyrainin,SolarRadiationWatts/m^2,SoftwareType,DateUTC
2013-07-03 00:04:00,75.0,55.0,-100.00,West,271,6.0,13.0,50,0.00,,,0.00,0.000000,,2013-07-03 07:04:00,
2013-07-03 00:12:00,75.0,55.0,-100.00,West,271,6.0,13.0,50,0.00,,,0.00,0.000000,,2013-07-03 07:12:00,
2013-07-03 00:24:00,75.0,55.0,-100.00,West,271,6.0,13.0,50,0.00,,,0.00,0.000000,,2013-07-03 07:24:00,
2013-07-03 01:05:00,74.0,54.0,-100.00,WNW,283,8.0,10.0,50,0.00,,,0.00,0.000000,,2013-07-03 08:05:00,
2013-07-03 01:24:00,74.0,54.0,-100.00,WNW,283,8.0,10.0,50,0.00,,,0.00,0.000000,,2013-07-03 08:24:00,
2013-07-03 01:56:00,74.0,51.0,-100.00,WNW,286,12.0,15.0,45,0.00,,,0.00,0.000000,,2013-07-03 08:56:00,
2013-07-03 02:02:00,74.0,51.0,-100.00,WNW,286,12.0,15.0,45,0.00,,,0.00,0.000000,,2013-07-03 09:02:00,
2013-07-03 02:24:00,74.0,51.0,-100.00,WNW,286,12.0,15.0,45,0.00,,,0.00,0.000000,,2013-07-03 09:24:00,
2013-07-03 03:14:00,69.0,52.0,-100.00,WNW,297,9.0,16.0,55,0.00,,,0.00,0.000000,,2013-07-03 10:14:00,
2013-07-03 03:24:00,69.0,52.0,-100.00,WNW,297,9.0,16.0,55,0.00,,,0.00,0.000000,,2013-07-03 10:24:00,
2013-07-03 03:56:00,71.0,49.0,-100.00,WNW,285,11.0,15.0,45,0.00,,,0.00,0.000000,,2013-07-03 10:56:00,
2013-07-03 04:13:00,71.0,49.0,-100.00,WNW,285,11.0,15.0,45,0.00,,,0.00,0.000000,,2013-07-03 11:13:00,
2013-07-03 04:23:00,71.0,49.0,-100.00,WNW,285,11.0,15.0,45,0.00,,,0.00,0.000000,,2013-07-03 11:23:00,
2013-07-03 04:56:00,69.0,50.0,-100.00,WNW,286,13.0,18.0,50,0.00,,,0.00,0.000000,,2013-07-03 11:56:00,
2013-07-03 05:22:00,69.0,50.0,-100.00,WNW,286,13.0,18.0,50,0.00,,,0.00,0.000000,,2013-07-03 12:22:00,
2013-07-03 05:58:00,68.0,50.0,-100.00,WNW,291,15.0,20.0,52,0.00,,,0.00,7.000000,,2013-07-03 12:58:00,
2013-07-03 06:03:00,68.0,50.0,-100.00,WNW,291,15.0,20.0,52,0.00,,,0.00,7.000000,,2013-07-03 13:03:00,
2013-07-03 06:14:00,68.0,50.0,-100.00,WNW,291,15.0,20.0,52,0.00,,,0.00,7.000000,,2013-07-03 13:14:00,
2013-07-03 06:24:00,68.0,50.0,-100.00,WNW,291,15.0,20.0,52,0.00,,,0.00,7.000000,,2013-07-03 13:24:00,
2013-07-03 07:05:00,68.0,51.0,-100.00,WNW,286,14.0,20.0,55,0.00,,,0.00,95.000000,,2013-07-03 14:05:00,
2013-07-03 07:14:00,68.0,51.0,-100.00,WNW,286,14.0,20.0,55,0.00,,,0.00,95.000000,,2013-07-03 14:14:00,
2013-07-03 07:23:00,68.0,51.0,-100.00,WNW,286,14.0,20.0,55,0.00,,,0.00,95.000000,,2013-07-03 14:23:00,
2013-07-03 07:55:00,72.0,54.0,-100.00,WNW,293,10.0,16.0,53,0.00,,,0.00,278.000000,,2013-07-03 14:55:00,
2013-07-03 08:03:00,72.0,54.0,-100.00,WNW,293,10.0,16.0,53,0.00,,,0.00,278.000000,,2013-07-03 15:03:00,
2013-07-03 08:14:00,72.0,54.0,-100.00,WNW,293,10.0,16.0,53,0.00,,,0.00,278.000000,,2013-07-03 15:14:00,
2013-07-03 08:23:00,72.0,54.0,-100.00,WNW,293,10.0,16.0,53,0.00,,,0.00,278.000000,,2013-07-03 15:23:00,
2013-07-03 09:13:00,77.0,53.0,-100.00,WNW,291,10.0,14.0,43,0.00,,,0.00,476.000000,,2013-07-03 16:13:00,
2013-07-03 09:22:00,77.0,53.0,-100.00,WNW,291,10.0,14.0,43,0.00,,,0.00,476.000000,,2013-07-03 16:22:00,
2013-07-03 10:05:00,81.0,52.0,-100.00,WNW,287,10.0,18.0,37,0.00,,,0.00,663.000000,,2013-07-03 17:05:00,
2013-07-03 10:23:00,81.0,52.0,-100.00,WNW,287,10.0,18.0,37,0.00,,,0.00,663.000000,,2013-07-03 17:23:00,
2013-07-03 10:56:00,83.0,52.0,-100.00,West,262,10.0,16.0,34,0.00,,,0.00,824.000000,,2013-07-03 17:56:00,
2013-07-03 11:04:00,83.0,52.0,-100.00,West,262,10.0,16.0,34,0.00,,,0.00,824.000000,,2013-07-03 18:04:00,
2013-07-03 11:13:00,83.0,52.0,-100.00,West,262,10.0,16.0,34,0.00,,,0.00,824.000000,,2013-07-03 18:13:00,
2013-07-03 11:23:00,83.0,52.0,-100.00,West,262,10.0,16.0,34,0.00,,,0.00,824.000000,,2013-07-03 18:23:00,
2013-07-03 12:04:00,86.0,50.0,-100.00,West,263,7.0,13.0,29,0.00,,,0.00,951.000000,,2013-07-03 19:04:00,
2013-07-03 12:25:00,86.0,50.0,-100.00,West,263,7.0,13.0,29,0.00,,,0.00,951.000000,,2013-07-03 19:25:00,
2013-07-03 12:57:00,89.0,47.0,-100.00,NW,305,6.0,11.0,24,0.00,,,0.00,1026.000000,,2013-07-03 19:57:00,
2013-07-03 13:03:00,89.0,47.0,-100.00,NW,305,6.0,11.0,24,0.00,,,0.00,1026.000000,,2013-07-03 20:03:00,
2013-07-03 13:13:00,89.0,47.0,-100.00,NW,305,6.0,11.0,24,0.00,,,0.00,1026.000000,,2013-07-03 20:13:00,
2013-07-03 13:23:00,89.0,47.0,-100.00,NW,305,6.0,11.0,24,0.00,,,0.00,1026.000000,,2013-07-03 20:23:00,
2013-07-03 14:05:00,90.0,47.0,-100.00,NW,322,7.0,11.0,23,0.00,,,0.00,1047.000000,,2013-07-03 21:05:00,
2013-07-03 14:12:00,90.0,47.0,-100.00,NW,322,7.0,11.0,23,0.00,,,0.00,1047.000000,,2013-07-03 21:12:00,
2013-07-03 14:22:00,90.0,47.0,-100.00,NW,322,7.0,11.0,23,0.00,,,0.00,1047.000000,,2013-07-03 21:22:00,
2013-07-03 15:02:00,92.0,44.0,-100.00,West,274,9.0,16.0,19,0.00,,,-99.99,1019.000000,,2013-07-03 22:02:00,
2013-07-03 15:12:00,92.0,44.0,-100.00,West,274,9.0,16.0,19,0.00,,,-99.99,1019.000000,,2013-07-03 22:12:00,
2013-07-03 15:23:00,92.0,44.0,-100.00,West,274,9.0,16.0,19,0.00,,,-99.99,1019.000000,,2013-07-03 22:23:00,
2013-07-03 16:03:00,93.0,42.0,-100.00,NW,312,9.0,12.0,17,0.00,,,0.00,946.000000,,2013-07-03 23:03:00,
2013-07-03 16:13:00,93.0,42.0,-100.00,NW,312,9.0,12.0,17,0.00,,,0.00,946.000000,,2013-07-03 23:13:00,
2013-07-03 16:22:00,93.0,42.0,-100.00,NW,312,9.0,12.0,17,0.00,,,0.00,946.000000,,2013-07-03 23:22:00,
2013-07-03 17:02:00,94.0,43.0,-100.00,NW,321,6.0,12.0,17,0.00,,,0.00,815.000000,,2013-07-04 00:02:00,
2013-07-03 17:12:00,94.0,43.0,-100.00,NW,321,6.0,12.0,17,0.00,,,0.00,815.000000,,2013-07-04 00:12:00,
2013-07-03 17:22:00,94.0,43.0,-100.00,NW,321,6.0,12.0,17,0.00,,,0.00,815.000000,,2013-07-04 00:22:00,
2013-07-03 18:03:00,95.0,40.0,-100.00,NNW,327,4.0,9.0,15,0.00,,,0.00,641.000000,,2013-07-04 01:03:00,
2013-07-03 18:23:00,95.0,40.0,-100.00,NNW,327,4.0,9.0,15,0.00,,,0.00,641.000000,,2013-07-04 01:23:00,
2013-07-03 18:54:00,93.0,46.0,-100.00,WNW,282,8.0,11.0,20,0.00,,,0.00,461.000000,,2013-07-04 01:54:00,
2013-07-03 19:12:00,93.0,46.0,-100.00,WNW,282,8.0,11.0,20,0.00,,,0.00,461.000000,,2013-07-04 02:12:00,
2013-07-03 19:22:00,93.0,46.0,-100.00,WNW,282,8.0,11.0,20,0.00,,,0.00,461.000000,,2013-07-04 02:22:00,
2013-07-03 19:56:00,88.0,46.0,-100.00,WNW,286,11.0,16.0,23,0.00,,,0.00,273.000000,,2013-07-04 02:56:00,
2013-07-03 20:04:00,88.0,46.0,-100.00,WNW,286,11.0,16.0,23,0.00,,,0.00,273.000000,,2013-07-04 03:04:00,
2013-07-03 21:11:00,80.0,46.0,-100.00,WNW,294,15.0,20.0,30,0.00,,,0.00,103.000000,,2013-07-04 04:11:00,
2013-07-03 21:22:00,80.0,46.0,-100.00,WNW,294,15.0,20.0,30,0.00,,,0.00,103.000000,,2013-07-04 04:22:00,
2013-07-03 22:12:00,75.0,45.0,-100.00,WNW,293,15.0,22.0,34,0.00,,,0.00,7.000000,,2013-07-04 05:12:00,
2013-07-03 22:22:00,75.0,45.0,-100.00,WNW,293,15.0,22.0,34,0.00,,,0.00,7.000000,,2013-07-04 05:22:00,
2013-07-03 23:01:00,72.0,46.0,-100.00,WNW,290,16.0,20.0,39,0.00,,,0.00,0.000000,,2013-07-04 06:01:00,
2013-07-03 23:11:00,72.0,46.0,-100.00,WNW,290,16.0,20.0,39,0.00,,,0.00,0.000000,,2013-07-04 06:11:00,
2013-07-03 23:22:00,72.0,46.0,-100.00,WNW,290,16.0,20.0,39,0.00,,,0.00,0.000000,,2013-07-04 06:22:00,